Regional Weather Roundup
Issued by NWS Lake Charles, LA

Home | Current Version | Previous Version | Text Only | Print | Product List | Glossary On
Versions: 1 2 3 4 5 6 7 8 9 10 11 12 13 14 15 16 17 18 19 20 21 22 23 24 25 26 27 28 29 30 31 32 33 34 35 36 37 38 39 40 41 42 43 44 45 46 47 48 49 50
000
ASUS44 KLCH 300310
RWRLCH
REGIONAL WEATHER ROUNDUP
NATIONAL WEATHER SERVICE LAKE CHARLES LA
1000 PM CDT WED MAR 29 2017

Note: "fair" indicates few or no clouds below 12,000 feet with no
significant weather and/or obstructions to visibility.


ACROSS SOUTHEAST TEXAS

CITY           SKY/WX    TMP DP  RH WIND       PRES   REMARKS
BEAUMONT       CLOUDY    73  71  93 S7        29.80R
BEAUMONT CITY  CLOUDY   N/A N/A N/A S3        29.82R HAZE
ORANGE         CLOUDY    73  72  97 W6        29.81R FOG
JASPER           N/A     65  64  97 CALM      29.83R
$$

ACROSS CENTRAL LOUISIANA

CITY           SKY/WX    TMP DP  RH WIND       PRES   REMARKS
LEESVILLE      MOCLDY    67  62  82 S9        29.80R
FULLERTON      MOCLDY    67  64  90 VRB5      29.78S
ALEXANDRIA INT CLOUDY    70  62  76 S9        29.78R
ESLER FIELD    LGT RAIN  68  64  87 SE16G28   29.76F
DERIDDER       CLOUDY    65  64  96 SE7       29.83F
OAKDALE        RAIN      66  65  95 SW6       29.84R
OPELOUSAS      CLOUDY    66  64  95 MISG      29.87R
$$

ACROSS SOUTHWEST AND SOUTH CENTRAL LOUISIANA

CITY           SKY/WX    TMP DP  RH WIND       PRES   REMARKS
SULPHUR        TSTM      69  69  99 W7        29.82S
LAKE CHARLES   CLOUDY    68  67  96 VRB3G18   29.81R THUNDER
CHENNAULT INT  MOCLDY    64  64 100 W13G31    29.83S THUNDER
CAMERON PHI    MOCLDY    75  73  94 S20G31    29.79R FOG
DEQUINCY       CLOUDY    65  65 100 CALM      29.81F THUNDER
JENNINGS       CLOUDY    65  64  96 N8        29.85R
LAFAYETTE      CLOUDY    75  70  84 S10       29.85S
NEW IBERIA     TSTM      75  68  78 S17G23    29.86R
ABBEVILLE      NOT AVBL
PATTERSON      CLOUDY    74  70  87 SE12      29.88S
SALT POINT       N/A     73  70  90 VRB6      29.85S
$$

SELECTED SITES ACROSS THE REGION

CITY           SKY/WX    TMP DP  RH WIND       PRES   REMARKS
HOUSTON BUSH   CLEAR     69  68  96 CALM      29.80R
HOUSTON HOBBY  PTCLDY    71  69  93 SW3       29.80R
GALVESTON      CLEAR     75  72  90 SW10      29.81R
COLLEGE STAT   CLEAR     66  57  72 CALM      29.82R
CONROE         FOG       66  65  96 CALM      29.82R VSB 3/4
HUNTSVILLE     CLEAR     66  58  75 CALM      29.81R
LUFKIN         CLEAR     63  62  97 S5        29.79R
SHREVEPORT     PTCLDY    67  62  84 S12       29.76R
MONROE         MOCLDY    64  62  93 E3        29.80R
NATCHEZ MS     NOT AVBL
BATON ROUGE    CLOUDY    75  68  78 SE10      29.87S
N.O. INTL ARPT MOCLDY    74  69  85 SE14      29.90R
SLIDELL        CLOUDY    74  69  85 SE12      29.91R
$$

MARINE REPORTS

STATION/POSITION TIME  SKY/WX   TEMP    WIND        PRES    VSBY
                                AIR SEA DIR/SP/G
                 (UTC)          (F)     (DEG/KT/KT) (MB)    (MI)
BUOY 30 S HIGH I 0250            73 72  220/  6/  8 1009.6R
WVE H/P(F/S)=  5/ 9

SEA RIM ST PARK  0300            74     200/ 14/ 17 1010.1R
PORT ARTHUR      0248               74  210/  9/ 15 1009.6R
SABINE PASS N    0248            72 78  200/ 12/ 17 1010.7R
TEXAS POINT      NOT AVBL
CALCASIEU PASS   0248            74 75  190/ 19/ 28   N/A
LK CHARLES BEACH 0248            67 72              1010.4R
MARSH ISLAND     0200            76                   N/A
FRESH WATER LOCK 0248            74 76  160/ 16/ 21 1010.0R
AMERADA PASS     0248            74 67  140/  7/ 12 1011.6R
$$



USA.gov is the U.S. government's official web portal to all federal, state and local government web resources and services.